TimeCST,TemperatureF,Dew PointF,Humidity,Sea Level PressureIn,VisibilityMPH,Wind Direction,Wind SpeedMPH,Gust SpeedMPH,PrecipitationIn,Events,Conditions,WindDirDegrees,DateUTC
12:53 AM,28.0,21.9,78,30.25,10.0,South,4.6,-,N/A,,Clear,170,2013-01-23 06:53:00
1:53 AM,28.0,21.9,78,30.24,10.0,South,3.5,-,N/A,,Clear,170,2013-01-23 07:53:00
2:53 AM,26.1,21.9,84,30.25,10.0,Calm,Calm,-,N/A,,Clear,0,2013-01-23 08:53:00
3:53 AM,27.0,21.9,81,30.24,10.0,Calm,Calm,-,N/A,,Clear,0,2013-01-23 09:53:00
4:53 AM,27.0,21.9,81,30.24,10.0,South,3.5,-,N/A,,Clear,180,2013-01-23 10:53:00
5:53 AM,26.1,23.0,88,30.23,10.0,Calm,Calm,-,N/A,,Clear,0,2013-01-23 11:53:00
6:53 AM,26.1,23.0,88,30.24,10.0,Calm,Calm,-,N/A,,Clear,0,2013-01-23 12:53:00
7:53 AM,28.0,24.1,85,30.26,10.0,Calm,Calm,-,N/A,,Clear,0,2013-01-23 13:53:00
8:53 AM,35.1,30.0,82,30.26,10.0,Calm,Calm,-,N/A,,Clear,0,2013-01-23 14:53:00
9:53 AM,44.1,36.0,73,30.26,10.0,South,4.6,-,N/A,,Clear,190,2013-01-23 15:53:00
10:53 AM,50.0,39.0,66,30.25,10.0,SW,11.5,-,N/A,,Clear,220,2013-01-23 16:53:00
11:53 AM,53.1,41.0,64,30.22,10.0,West,11.5,-,N/A,,Clear,260,2013-01-23 17:53:00
12:53 PM,55.9,42.1,60,30.18,10.0,SSW,8.1,-,N/A,,Clear,210,2013-01-23 18:53:00
1:53 PM,57.0,42.1,57,30.16,10.0,SW,5.8,-,N/A,,Clear,220,2013-01-23 19:53:00
2:53 PM,59.0,42.1,53,30.16,10.0,WSW,6.9,-,N/A,,Clear,240,2013-01-23 20:53:00
3:53 PM,59.0,41.0,51,30.15,10.0,WSW,9.2,-,N/A,,Clear,240,2013-01-23 21:53:00
4:53 PM,57.0,42.1,57,30.15,10.0,WSW,4.6,-,N/A,,Clear,250,2013-01-23 22:53:00
5:53 PM,52.0,41.0,66,30.17,10.0,WSW,4.6,-,N/A,,Clear,240,2013-01-23 23:53:00
6:53 PM,46.0,39.9,79,30.18,10.0,West,3.5,-,N/A,,Clear,280,2013-01-24 00:53:00
7:53 PM,46.9,39.9,77,30.20,10.0,Calm,Calm,-,N/A,,Clear,0,2013-01-24 01:53:00
8:53 PM,45.0,39.9,82,30.21,10.0,North,4.6,-,N/A,,Clear,350,2013-01-24 02:53:00
9:53 PM,44.1,39.0,82,30.23,10.0,NNE,5.8,-,N/A,,Scattered Clouds,20,2013-01-24 03:53:00
10:53 PM,44.1,37.9,79,30.24,10.0,NE,8.1,-,N/A,,Overcast,40,2013-01-24 04:53:00
11:53 PM,43.0,35.1,74,30.25,10.0,NNE,11.5,-,N/A,,Overcast,20,2013-01-24 05:53:00